TimeEDT,TemperatureF,Dew PointF,Humidity,Sea Level PressureIn,VisibilityMPH,Wind Direction,Wind SpeedMPH,Gust SpeedMPH,PrecipitationIn,Events,Conditions,WindDirDegrees,DateUTC
12:53 AM,37.9,33.1,83,29.87,10.0,East,3.5,-,N/A,,Mostly Cloudy,90,2012-10-16 04:53:00
1:53 AM,39.0,34.0,82,29.86,10.0,Calm,Calm,-,N/A,,Mostly Cloudy,0,2012-10-16 05:53:00
2:53 AM,39.9,35.1,83,29.86,10.0,ESE,3.5,-,N/A,,Overcast,120,2012-10-16 06:53:00
3:53 AM,41.0,36.0,82,29.83,10.0,ESE,4.6,-,N/A,,Overcast,120,2012-10-16 07:53:00
4:53 AM,41.0,36.0,82,29.81,10.0,SSE,4.6,-,0.01,Rain,Light Rain,150,2012-10-16 08:53:00
5:53 AM,39.9,36.0,86,29.80,10.0,South,5.8,-,0.01,Rain,Light Rain,170,2012-10-16 09:53:00
6:53 AM,39.0,37.0,93,29.77,10.0,SE,5.8,-,0.02,Rain,Light Rain,140,2012-10-16 10:53:00
7:53 AM,39.2,37.4,93,29.71,10.0,SE,5.8,-,N/A,Rain,Light Rain,140,2012-10-16 11:53:00
8:53 AM,42.1,39.0,89,29.72,10.0,SE,5.8,-,0.01,,Overcast,130,2012-10-16 12:53:00
9:53 AM,43.0,39.9,89,29.71,5.0,SE,6.9,-,0.05,Rain,Light Rain,140,2012-10-16 13:53:00
10:53 AM,43.0,42.1,97,29.68,3.0,SSE,5.8,-,0.13,Rain,Rain,150,2012-10-16 14:53:00
11:53 AM,44.1,43.0,96,29.66,3.0,SSE,6.9,-,0.09,Rain,Rain,150,2012-10-16 15:53:00
12:01 PM,44.6,42.8,93,29.63,2.0,SSE,5.8,-,0.04,Rain,Rain,150,2012-10-16 16:01:00
12:09 PM,44.6,42.8,93,29.63,1.8,SE,5.8,-,0.08,Rain,Rain,140,2012-10-16 16:09:00
12:20 PM,44.6,44.6,100,29.62,2.5,SE,4.6,-,0.11,Rain,Rain,140,2012-10-16 16:20:00
12:34 PM,44.6,44.6,100,29.63,3.0,East,3.5,-,0.13,Rain,Rain,80,2012-10-16 16:34:00
12:45 PM,46.4,44.6,93,29.62,1.8,SSE,5.8,-,0.18,Rain,Heavy Rain,150,2012-10-16 16:45:00
12:53 PM,46.0,44.1,93,29.64,1.8,SSW,3.5,-,0.21,Rain,Rain,210,2012-10-16 16:53:00
1:00 PM,46.4,44.6,93,29.62,2.5,South,8.1,-,0.01,Rain,Rain,190,2012-10-16 17:00:00
1:19 PM,46.4,44.6,93,29.61,5.0,South,6.9,-,0.05,Rain,Light Rain,180,2012-10-16 17:19:00
1:53 PM,46.9,45.0,93,29.62,5.0,South,6.9,-,0.09,Rain,Light Rain,190,2012-10-16 17:53:00
2:53 PM,46.9,46.0,97,29.58,10.0,South,8.1,-,0.00,,Overcast,180,2012-10-16 18:53:00
3:53 PM,50.0,46.9,89,29.56,10.0,South,5.8,-,N/A,,Overcast,180,2012-10-16 19:53:00
4:05 PM,50.0,48.2,94,29.54,10.0,South,8.1,-,N/A,,Overcast,180,2012-10-16 20:05:00
4:53 PM,50.0,46.9,89,29.55,10.0,SSE,6.9,-,N/A,,Overcast,160,2012-10-16 20:53:00
5:53 PM,51.1,46.9,86,29.53,10.0,SSE,8.1,-,N/A,,Overcast,160,2012-10-16 21:53:00
6:53 PM,46.9,46.9,100,29.52,6.0,ESE,6.9,-,N/A,,Clear,120,2012-10-16 22:53:00
7:00 PM,46.4,46.4,100,29.50,3.0,ESE,4.6,-,N/A,,Scattered Clouds,110,2012-10-16 23:00:00
7:08 PM,46.4,46.4,100,29.49,2.5,ESE,5.8,-,N/A,,Scattered Clouds,120,2012-10-16 23:08:00
7:26 PM,46.4,46.4,100,29.49,6.0,ESE,4.6,-,N/A,,Partly Cloudy,110,2012-10-16 23:26:00
7:53 PM,46.9,46.0,97,29.51,4.0,East,5.8,-,N/A,,Partly Cloudy,80,2012-10-16 23:53:00
7:57 PM,46.4,46.4,100,29.49,1.5,East,5.8,-,N/A,,Partly Cloudy,80,2012-10-16 23:57:00
8:12 PM,46.4,46.4,100,29.49,3.0,East,5.8,-,N/A,,Partly Cloudy,80,2012-10-17 00:12:00
8:53 PM,46.0,45.0,96,29.52,10.0,East,5.8,-,N/A,,Clear,100,2012-10-17 00:53:00
9:53 PM,46.9,45.0,93,29.52,10.0,SE,6.9,-,N/A,,Clear,140,2012-10-17 01:53:00
10:53 PM,48.0,45.0,89,29.52,10.0,South,8.1,-,N/A,,Mostly Cloudy,180,2012-10-17 02:53:00
11:53 PM,48.9,45.0,86,29.51,10.0,SSE,8.1,-,N/A,,Clear,160,2012-10-17 03:53:00